TimeEDT,TemperatureF,Dew PointF,Humidity,Sea Level PressureIn,VisibilityMPH,Wind Direction,Wind SpeedMPH,Gust SpeedMPH,PrecipitationIn,Events,Conditions,WindDirDegrees,DateUTC
12:08 AM,41.0,32.0,70,30.20,10.0,WNW,5.8,-,N/A,,Scattered Clouds,290,2013-03-29 04:08:00
12:28 AM,41.0,32.0,70,30.20,10.0,WNW,4.6,-,N/A,,Mostly Cloudy,290,2013-03-29 04:28:00
12:48 AM,41.0,32.0,70,30.20,10.0,WNW,3.5,-,N/A,,Scattered Clouds,290,2013-03-29 04:48:00
1:08 AM,39.2,32.0,75,30.20,10.0,WNW,4.6,-,N/A,,Clear,300,2013-03-29 05:08:00
1:28 AM,39.2,32.0,75,30.21,10.0,West,5.8,-,N/A,,Clear,280,2013-03-29 05:28:00
1:48 AM,39.2,32.0,75,30.21,10.0,WNW,4.6,-,N/A,,Clear,290,2013-03-29 05:48:00
2:08 AM,39.2,32.0,75,30.21,10.0,WNW,4.6,-,N/A,,Clear,290,2013-03-29 06:08:00
2:29 AM,39.2,32.0,75,30.21,10.0,WNW,4.6,-,N/A,,Clear,300,2013-03-29 06:29:00
2:49 AM,39.2,32.0,75,30.21,10.0,NW,5.8,-,N/A,,Clear,310,2013-03-29 06:49:00
3:09 AM,39.2,32.0,75,30.20,10.0,WNW,4.6,-,N/A,,Clear,300,2013-03-29 07:09:00
3:29 AM,39.2,32.0,75,30.20,10.0,WNW,3.5,-,N/A,,Clear,300,2013-03-29 07:29:00
3:49 AM,39.2,32.0,75,30.20,10.0,WNW,4.6,-,N/A,,Clear,300,2013-03-29 07:49:00
4:09 AM,39.2,32.0,75,30.20,10.0,WNW,4.6,-,N/A,,Clear,300,2013-03-29 08:09:00
4:29 AM,39.2,32.0,75,30.20,10.0,WNW,3.5,-,N/A,,Clear,300,2013-03-29 08:29:00
4:49 AM,39.2,32.0,75,30.20,10.0,WNW,3.5,-,N/A,,Clear,290,2013-03-29 08:49:00
5:09 AM,35.6,30.2,81,30.20,10.0,Calm,Calm,-,N/A,,Clear,0,2013-03-29 09:09:00
5:29 AM,33.8,30.2,87,30.20,10.0,Calm,Calm,-,N/A,,Clear,0,2013-03-29 09:29:00
6:09 AM,32.0,30.2,93,30.21,10.0,Calm,Calm,-,N/A,,Clear,0,2013-03-29 10:09:00
6:29 AM,32.0,30.2,93,30.21,10.0,Calm,Calm,-,N/A,,Clear,0,2013-03-29 10:29:00
7:09 AM,32.0,30.2,93,30.22,10.0,West,3.5,-,N/A,,Clear,270,2013-03-29 11:09:00
7:29 AM,32.0,30.2,93,30.23,10.0,Calm,Calm,-,N/A,,Clear,0,2013-03-29 11:29:00
7:49 AM,33.8,32.0,93,30.23,10.0,Calm,Calm,-,N/A,,Clear,0,2013-03-29 11:49:00
8:09 AM,39.2,32.0,75,30.23,10.0,WNW,3.5,-,N/A,,Clear,290,2013-03-29 12:09:00
8:29 AM,42.8,30.2,61,30.23,10.0,WNW,5.8,-,N/A,,Clear,290,2013-03-29 12:29:00
8:49 AM,44.6,30.2,57,30.23,10.0,NW,9.2,-,N/A,,Clear,310,2013-03-29 12:49:00
9:09 AM,44.6,30.2,57,30.23,10.0,NW,11.5,-,N/A,,Scattered Clouds,320,2013-03-29 13:09:00
9:29 AM,44.6,30.2,57,30.23,10.0,WNW,9.2,-,N/A,,Mostly Cloudy,300,2013-03-29 13:29:00
9:49 AM,46.4,28.4,50,30.23,10.0,WNW,11.5,-,N/A,,Mostly Cloudy,300,2013-03-29 13:49:00
10:09 AM,46.4,28.4,50,30.23,10.0,NW,11.5,18.4,N/A,,Mostly Cloudy,320,2013-03-29 14:09:00
10:29 AM,46.4,28.4,50,30.24,10.0,NW,10.4,18.4,N/A,,Overcast,310,2013-03-29 14:29:00
10:50 AM,46.4,28.4,50,30.23,10.0,NW,9.2,18.4,N/A,,Scattered Clouds,310,2013-03-29 14:50:00
11:10 AM,46.4,28.4,50,30.23,10.0,WNW,10.4,19.6,N/A,,Scattered Clouds,300,2013-03-29 15:10:00
11:30 AM,50.0,28.4,43,30.23,10.0,WNW,12.7,-,N/A,,Clear,300,2013-03-29 15:30:00
11:50 AM,50.0,28.4,43,30.23,10.0,WNW,13.8,18.4,N/A,,Clear,300,2013-03-29 15:50:00
12:10 PM,50.0,28.4,43,30.22,10.0,WNW,13.8,18.4,N/A,,Clear,290,2013-03-29 16:10:00
12:30 PM,50.0,28.4,43,30.21,10.0,WNW,10.4,19.6,N/A,,Clear,290,2013-03-29 16:30:00
12:50 PM,50.0,28.4,43,30.21,10.0,NNW,11.5,17.3,N/A,,Clear,330,2013-03-29 16:50:00
1:10 PM,50.0,28.4,43,30.20,10.0,WNW,10.4,17.3,N/A,,Clear,300,2013-03-29 17:10:00
1:30 PM,50.0,28.4,43,30.19,10.0,NW,9.2,-,N/A,,Clear,320,2013-03-29 17:30:00
1:50 PM,50.0,28.4,43,30.18,10.0,NW,10.4,17.3,N/A,,Clear,320,2013-03-29 17:50:00
2:10 PM,51.8,28.4,41,30.18,10.0,NNW,9.2,-,N/A,,Clear,340,2013-03-29 18:10:00
2:30 PM,51.8,28.4,41,30.17,10.0,NNW,9.2,16.1,N/A,,Scattered Clouds,340,2013-03-29 18:30:00
2:50 PM,51.8,28.4,41,30.16,10.0,NNW,9.2,-,N/A,,Scattered Clouds,330,2013-03-29 18:50:00
3:10 PM,51.8,28.4,41,30.16,10.0,WNW,11.5,-,N/A,,Scattered Clouds,290,2013-03-29 19:10:00
3:30 PM,51.8,30.2,44,30.16,10.0,West,10.4,-,N/A,,Scattered Clouds,280,2013-03-29 19:30:00
3:50 PM,53.6,28.4,38,30.15,10.0,NW,8.1,-,N/A,,Scattered Clouds,320,2013-03-29 19:50:00
4:10 PM,53.6,30.2,41,30.15,10.0,North,10.4,16.1,N/A,,Scattered Clouds,350,2013-03-29 20:10:00
4:30 PM,53.6,30.2,41,30.15,10.0,NNW,10.4,-,N/A,,Scattered Clouds,330,2013-03-29 20:30:00
4:50 PM,53.6,30.2,41,30.14,10.0,NNW,8.1,-,N/A,,Scattered Clouds,330,2013-03-29 20:50:00
5:10 PM,53.6,28.4,38,30.14,10.0,NNW,6.9,-,N/A,,Scattered Clouds,330,2013-03-29 21:10:00
5:30 PM,51.8,28.4,41,30.14,10.0,NNW,5.8,-,N/A,,Clear,330,2013-03-29 21:30:00
5:50 PM,53.6,30.2,41,30.14,10.0,NNW,6.9,-,N/A,,Clear,330,2013-03-29 21:50:00
6:10 PM,53.6,30.2,41,30.14,10.0,WNW,5.8,-,N/A,,Clear,290,2013-03-29 22:10:00
6:30 PM,51.8,28.4,41,30.15,10.0,WNW,4.6,-,N/A,,Clear,290,2013-03-29 22:30:00
7:10 PM,50.0,30.2,47,30.15,10.0,Calm,Calm,-,N/A,,Clear,0,2013-03-29 23:10:00
7:30 PM,46.4,32.0,57,30.16,10.0,Calm,Calm,-,N/A,,Clear,0,2013-03-29 23:30:00
7:51 PM,44.6,32.0,61,30.16,10.0,Calm,Calm,-,N/A,,Clear,0,2013-03-29 23:51:00
8:11 PM,42.8,32.0,66,30.16,10.0,Calm,Calm,-,N/A,,Clear,0,2013-03-30 00:11:00
8:31 PM,41.0,32.0,70,30.17,10.0,Calm,Calm,-,N/A,,Clear,0,2013-03-30 00:31:00
10:11 PM,37.4,33.8,87,30.19,10.0,Calm,Calm,-,N/A,,Clear,0,2013-03-30 02:11:00
10:31 PM,39.2,33.8,81,30.19,10.0,Calm,Calm,-,N/A,,Scattered Clouds,0,2013-03-30 02:31:00
10:51 PM,39.2,32.0,75,30.19,10.0,Calm,Calm,-,N/A,,Scattered Clouds,0,2013-03-30 02:51:00
11:11 PM,35.6,32.0,87,30.19,10.0,Calm,Calm,-,N/A,,Clear,0,2013-03-30 03:11:00
11:31 PM,35.6,32.0,87,30.19,10.0,Calm,Calm,-,N/A,,Clear,0,2013-03-30 03:31:00
11:51 PM,35.6,32.0,87,30.20,10.0,Calm,Calm,-,N/A,,Clear,0,2013-03-30 03:51:00